Location: Crescent
(42.8242°N, 73.7329°W)
Time: 18:51:19
(UTC+00:00)

Tiros 1 - Pass Details

Date: 20 February 2026
Orbit: 618 x 649 km, 48.4° (Epoch: 10 March)

Event Time Altitude Azimuth Distance (km) Brightness Sun altitude
Rises 12:12:51 0° 224° (SW) 2,916 10.3 4.1°
Reaches altitude 10° 12:15:13 10° 219° (SW) 2,005 9.5 4.5°
Maximum altitude 12:19:39 48° 145° (SE) 821 8.4 5.3°
Drops below altitude 10° 12:24:04 10° 71° (ENE) 1,995 10.6 6.1°
Sets 12:26:26 0° 66° (ENE) 2,900 11.2 6.5°
